GW6435 Weather Reports


time (UTC)temp
C
wind
direction
speed
KPH
gust
KPH
rain 1hr
cm
rain 24hr
cm
rain mn
cm
humidity
%
barometer
mb
20260505113448 27 129 1.6 3.2 0.00 0.00 0.00 78 1018.8
20260505112944 27 139 3.2 4.8 0.00 0.00 0.00 79 1018.8
20260505112441 27 226 1.6 3.2 0.00 0.00 0.00 81 1018.8
20260505111938 26 174 1.6 3.2 0.00 0.00 0.00 81 1018.7
20260505111432 26 210 1.6 3.2 0.00 0.00 0.00 81 1018.4
20260505110929 27 222 3.2 4.8 0.00 0.00 0.00 81 1018.7
20260505110425 27 224 1.6 3.2 0.00 0.00 0.00 81 1018.4
20260505101857 25 196 0.0 1.6 0.00 0.00 0.00 88 1018.1
20260505101357 25 144 0.0 1.6 0.00 0.00 0.00 88 1018.1
20260505100853 25 202 0.0 3.2 0.00 0.00 0.00 88 1018.0
20260505100349 25 170 1.6 1.6 0.00 0.00 0.00 88 1018.0
20260505095845 25 144 1.6 3.2 0.00 0.00 0.00 87 1017.8
20260505095343 25 164 1.6 1.6 0.00 0.00 0.00 87 1017.9
20260505094839 25 143 1.6 1.6 0.00 0.00 0.00 87 1017.9
20260505094336 25 215 0.0 3.2 0.00 0.00 0.00 87 1017.8
20260505093831 25 201 0.0 1.6 0.00 0.00 0.00 86 1017.9
20260505093329 25 120 0.0 1.6 0.00 0.00 0.00 86 1017.8
20260505092826 25 183 0.0 1.6 0.00 0.00 0.00 86 1017.9
20260505092325 25 229 0.0 1.6 0.00 0.00 0.00 86 1017.9
20260505091821 25 212 0.0 1.6 0.00 0.00 0.00 86 1017.8
20260505091319 25 219 0.0 1.6 0.00 0.00 0.00 86 1017.8
20260505090817 25 204 0.0 1.6 0.00 0.00 0.00 86 1017.8
20260505090315 25 220 0.0 1.6 0.00 0.00 0.00 86 1017.7
20260505085812 25 242 1.6 3.2 0.00 0.00 0.00 86 1017.8
20260505085310 25 229 1.6 1.6 0.00 0.00 0.00 86 1017.5
20260505084807 25 249 0.0 3.2 0.00 0.00 0.00 86 1017.6
20260505084306 25 226 0.0 1.6 0.00 0.00 0.00 86 1017.6
20260505083802 25 277 1.6 1.6 0.00 0.00 0.00 86 1017.6
20260505083300 25 245 3.2 3.2 0.00 0.00 0.00 86 1017.5
20260505082756 25 229 1.6 3.2 0.00 0.00 0.00 86 1017.5
20260505082253 25 232 3.2 3.2 0.00 0.00 0.00 86 1017.4
20260505081748 25 223 1.6 1.6 0.00 0.00 0.00 86 1017.2
20260505081246 25 249 1.6 3.2 0.00 0.00 0.00 86 1017.5
20260505080743 25 250 1.6 3.2 0.00 0.00 0.00 86 1017.3
20260505080238 25 203 1.6 1.6 0.00 0.00 0.00 86 1017.3
20260505075734 25 231 3.2 3.2 0.00 0.00 0.00 87 1017.0
20260505075231 25 167 0.0 1.6 0.00 0.00 0.00 87 1017.2
20260505074729 25 235 0.0 1.6 0.00 0.00 0.00 88 1017.2
20260505074226 25 308 0.0 0.0 0.00 0.00 0.00 88 1017.1
20260505073724 25 305 0.0 1.6 0.00 0.00 0.00 88 1017.4
20260505073221 25 285 1.6 1.6 0.00 0.00 0.00 88 1017.4
20260505072717 25 269 1.6 1.6 0.00 0.00 0.00 88 1017.4
20260505072213 25 76 0.0 0.0 0.00 0.00 0.00 88 1017.3
20260505071709 25 243 0.0 0.0 0.00 0.00 0.00 88 1017.4
20260505071207 25 261 0.0 1.6 0.00 0.00 0.00 88 1017.4
20260505070704 25 20 0.0 1.6 0.00 0.00 0.00 88 1017.4
20260505070200 25 335 0.0 0.0 0.00 0.00 0.00 88 1017.5
20260505065656 25 42 0.0 1.6 0.00 0.00 0.00 88 1017.4
20260505065153 25 262 1.6 1.6 0.00 0.00 0.00 88 1017.3
20260505064650 25 298 1.6 1.6 0.00 0.00 0.00 88 1017.3
20260505064148 25 254 0.0 0.0 0.00 0.00 0.00 87 1017.4
20260505063645 25 253 0.0 1.6 0.00 0.00 0.00 87 1017.3
20260505063141 25 273 1.6 1.6 0.00 0.00 0.00 86 1017.4
20260505062637 25 214 0.0 0.0 0.00 0.00 0.00 86 1017.3
20260505062135 25 63 0.0 0.0 0.00 0.00 0.00 86 1017.7
20260505061632 25 154 1.6 1.6 0.00 0.00 0.00 86 1017.5
20260505061130 25 106 0.0 1.6 0.00 0.00 0.00 86 1017.7
20260505060627 25 232 1.6 1.6 0.00 0.00 0.00 85 1017.6
20260505060124 25 97 1.6 3.2 0.00 0.00 0.00 85 1017.8
20260505055619 25 89 1.6 3.2 0.00 0.00 0.00 84 1017.8
20260505055116 25 100 3.2 3.2 0.00 0.00 0.00 83 1017.5
20260505054613 26 138 1.6 1.6 0.00 0.00 0.00 83 1017.8
20260505054112 26 79 1.6 3.2 0.00 0.00 0.00 83 1017.9
20260505053608 26 102 1.6 1.6 0.00 0.00 0.00 83 1018.2
20260505053105 26 109 1.6 1.6 0.00 0.00 0.00 82 1017.9
20260505052602 26 254 0.0 0.0 0.00 0.00 0.00 82 1017.9
20260505052100 26 236 0.0 1.6 0.00 0.00 0.00 81 1018.2
20260505051556 26 219 0.0 1.6 0.00 0.00 0.00 81 1018.3
20260505051054 26 250 0.0 1.6 0.00 0.00 0.00 81 1018.1
20260505050552 26 222 1.6 1.6 0.00 0.00 0.00 81 1018.3
20260505041520 26 129 1.6 3.2 0.00 0.00 0.00 83 1018.6
20260505041017 26 107 1.6 1.6 0.00 0.00 0.00 83 1019.0
20260505040514 26 62 3.2 3.2 0.00 0.00 0.00 82 1018.8
20260505040012 26 300 0.0 0.0 0.00 0.00 0.00 82 1018.8
20260505035507 26 284 0.0 0.0 0.00 0.00 0.00 82 1018.8
20260505035004 26 298 0.0 1.6 0.00 0.00 0.00 82 1018.9
20260505034500 26 320 0.0 1.6 0.00 0.00 0.00 82 1019.1
20260505033958 26 309 1.6 1.6 0.00 0.00 0.00 81 1019.0
20260505033454 26 304 1.6 1.6 0.00 0.00 0.00 81 1019.0
20260505032953 26 319 0.0 0.0 0.00 0.00 0.00 82 1019.1
20260505032450 26 68 4.8 4.8 0.00 0.00 0.00 82 1019.2
20260505031946 26 80 0.0 1.6 0.00 0.00 0.00 81 1019.1
20260505031443 26 275 1.6 3.2 0.00 0.00 0.00 80 1019.0
20260505030940 26 166 1.6 1.6 0.00 0.00 0.00 82 1019.0
20260505030436 26 205 0.0 1.6 0.00 0.00 0.00 82 1019.1
20260505025931 26 231 0.0 3.2 0.00 0.00 0.00 81 1019.0
20260505025429 26 161 1.6 3.2 0.00 0.00 0.00 81 1019.0
20260505024928 26 232 1.6 3.2 0.00 0.00 0.00 81 1018.9
20260505024425 26 206 1.6 3.2 0.00 0.00 0.00 81 1019.0
20260505023922 26 101 0.0 1.6 0.00 0.00 0.00 81 1019.0
20260505023419 26 103 1.6 1.6 0.00 0.00 0.00 81 1019.0
20260505022916 26 54 0.0 1.6 0.00 0.00 0.00 82 1018.9
20260505022413 26 63 3.2 3.2 0.00 0.00 0.00 81 1018.8
20260505021910 26 51 0.0 1.6 0.00 0.00 0.00 81 1018.9
20260505021407 26 67 0.0 3.2 0.00 0.00 0.00 81 1018.8
20260505020903 26 89 1.6 3.2 0.00 0.00 0.00 82 1018.8
20260505020358 26 61 1.6 3.2 0.00 0.00 0.00 82 1018.8
20260505015855 26 71 0.0 1.6 0.00 0.00 0.00 82 1018.9
20260505015352 26 64 1.6 3.2 0.00 0.00 0.00 81 1018.8
20260505014850 26 100 1.6 3.2 0.00 0.00 0.00 81 1018.7
20260505014346 26 86 1.6 4.8 0.00 0.00 0.00 81 1018.7
20260505013843 26 73 3.2 4.8 0.00 0.00 0.00 80 1018.7
20260505013340 26 95 3.2 3.2 0.00 0.00 0.00 81 1018.6
20260505012839 26 84 1.6 3.2 0.00 0.00 0.00 81 1018.6
20260505012336 26 83 3.2 3.2 0.00 0.00 0.00 80 1018.6
20260505011832 27 91 1.6 4.8 0.00 0.00 0.00 79 1018.3
20260505011329 27 74 3.2 4.8 0.00 0.00 0.00 79 1018.5
20260505010825 27 67 1.6 1.6 0.00 0.00 0.00 79 1018.3
20260505010321 27 82 1.6 4.8 0.00 0.00 0.00 78 1018.3
20260505005817 27 69 1.6 3.2 0.00 0.00 0.00 78 1018.2
20260505005314 27 100 1.6 3.2 0.00 0.00 0.00 77 1018.1
20260505004812 27 114 1.6 3.2 0.00 0.00 0.00 76 1018.2
20260505004308 27 142 3.2 4.8 0.00 0.00 0.00 76 1018.1
20260505003806 27 134 0.0 3.2 0.00 0.00 0.00 76 1017.9
20260505003303 27 152 1.6 3.2 0.00 0.00 0.00 75 1018.0
20260505002759 27 112 3.2 3.2 0.00 0.00 0.00 75 1018.1
20260505002256 27 93 4.8 6.4 0.00 0.00 0.00 75 1018.1
20260505001754 27 145 1.6 6.4 0.00 0.00 0.00 75 1017.9
20260505001251 27 80 4.8 4.8 0.00 0.00 0.00 75 1018.1
20260505000748 27 85 3.2 4.8 0.00 0.00 0.00 75 1018.1
20260505000246 27 82 4.8 4.8 0.00 0.00 0.00 75 1017.9
20260504235742 27 94 3.2 4.8 0.00 0.00 0.00 74 1017.8
20260504235238 27 103 1.6 4.8 0.00 0.00 0.00 75 1018.0
20260504234736 27 96 3.2 6.4 0.00 0.00 0.00 75 1018.1
20260504234233 27 124 1.6 3.2 0.00 0.00 0.00 75 1017.9
20260504233729 27 105 3.2 4.8 0.00 0.00 0.00 75 1017.8
20260504233225 27 108 4.8 6.4 0.00 0.00 0.00 74 1017.6
20260504232722 27 79 4.8 6.4 0.00 0.00 0.00 74 1017.6
20260504211236 29 92 8.0 12.9 0.00 0.00 0.00 69 1016.2
20260504210734 29 92 8.0 12.9 0.00 0.00 0.00 69 1016.2
20260504210231 29 237 8.0 14.5 0.00 0.00 0.00 68 1016.3
20260504205728 30 128 14.5 17.7 0.00 0.00 0.00 65 1016.2
20260504205226 30 151 6.4 11.3 0.00 0.00 0.00 64 1016.2
20260504204723 30 127 11.3 16.1 0.00 0.00 0.00 64 1016.2
20260504204222 30 124 12.9 16.1 0.00 0.00 0.00 64 1016.4
20260504203721 30 131 8.0 20.9 0.00 0.00 0.00 64 1016.1
20260504203218 30 132 6.4 16.1 0.00 0.00 0.00 63 1016.2
20260504202717 30 166 9.7 12.9 0.00 0.00 0.00 62 1016.1
20260504202215 30 143 8.0 12.9 0.00 0.00 0.00 63 1016.1
20260504201711 30 130 9.7 14.5 0.00 0.00 0.00 63 1016.2
20260504201209 30 159 6.4 16.1 0.00 0.00 0.00 64 1016.4
20260504200706 30 131 9.7 14.5 0.00 0.00 0.00 67 1016.3
20260504200202 29 123 11.3 20.9 0.00 0.00 0.00 68 1016.4
20260504195659 30 75 14.5 20.9 0.00 0.00 0.00 70 1016.5
20260504195155 30 116 9.7 12.9 0.00 0.00 0.00 69 1016.3
20260504194652 30 98 14.5 17.7 0.00 0.00 0.00 65 1016.5
20260504194148 30 155 14.5 16.1 0.00 0.00 0.00 66 1016.4
20260504193644 30 69 9.7 17.7 0.00 0.00 0.00 67 1016.6
20260504193142 30 182 8.0 14.5 0.00 0.00 0.00 65 1016.6
20260504192640 30 94 9.7 12.9 0.00 0.00 0.00 67 1016.5
20260504192138 30 112 11.3 17.7 0.00 0.00 0.00 66 1016.5
20260504191636 31 114 9.7 22.5 0.00 0.00 0.00 63 1016.5
20260504191132 31 134 9.7 17.7 0.00 0.00 0.00 63 1016.5
20260504190628 30 155 3.2 14.5 0.00 0.00 0.00 64 1016.5
20260504190125 30 92 11.3 17.7 0.00 0.00 0.00 65 1016.6
20260504185621 30 137 4.8 11.3 0.00 0.00 0.00 66 1016.8
20260504185118 30 141 11.3 16.1 0.00 0.00 0.00 66 1016.8
20260504184614 31 77 9.7 20.9 0.00 0.00 0.00 64 1016.9
20260504184109 31 107 9.7 16.1 0.00 0.00 0.00 63 1016.9
20260504183607 31 128 12.9 22.5 0.00 0.00 0.00 61 1016.9
20260504183104 30 82 8.0 14.5 0.00 0.00 0.00 63 1017.0
20260504182601 31 140 16.1 17.7 0.00 0.00 0.00 62 1017.1
20260504182059 31 99 6.4 16.1 0.00 0.00 0.00 62 1016.9
20260504181556 30 105 16.1 17.7 0.00 0.00 0.00 62 1016.8
20260504181054 30 144 9.7 20.9 0.00 0.00 0.00 62 1017.1
20260504180552 30 135 11.3 17.7 0.00 0.00 0.00 63 1017.1
20260504180051 31 97 16.1 25.7 0.00 0.00 0.00 59 1017.2
20260504175548 31 103 14.5 20.9 0.00 0.00 0.00 59 1017.1
20260504175044 31 141 9.7 17.7 0.00 0.00 0.00 59 1017.1
20260504174543 32 96 9.7 22.5 0.00 0.00 0.00 59 1017.3
20260504174039 32 142 6.4 14.5 0.00 0.00 0.00 56 1017.3
20260504173536 32 85 12.9 17.7 0.00 0.00 0.00 56 1017.3
20260504173033 32 130 9.7 14.5 0.00 0.00 0.00 56 1017.4
20260504172529 31 174 6.4 14.5 0.00 0.00 0.00 59 1017.5
20260504172026 31 195 8.0 12.9 0.00 0.00 0.00 60 1017.6
20260504171523 32 76 9.7 14.5 0.00 0.00 0.00 58 1017.7
20260504171020 31 149 6.4 11.3 0.00 0.00 0.00 56 1017.8
20260504170516 31 240 9.7 14.5 0.00 0.00 0.00 59 1017.9
20260504160436 31 111 4.8 14.5 0.00 0.00 0.00 55 1018.3
20260504150900 31 142 8.0 12.9 0.00 0.00 0.00 52 1018.5
20260504150356 31 122 11.3 14.5 0.00 0.00 0.00 54 1018.7
20260504141326 30 60 6.4 16.1 0.00 0.00 0.00 61 1018.6
20260504140823 30 97 12.9 17.7 0.00 0.00 0.00 61 1018.6
20260504140319 30 136 9.7 14.5 0.00 0.00 0.00 63 1018.7
20260504130748 28 140 9.7 11.3 0.00 0.00 0.00 74 1018.8
20260504130243 28 76 9.7 12.9 0.00 0.00 0.00 73 1018.9
20260504120207 27 86 3.2 6.4 0.00 0.00 0.00 77 1018.9